Location: Albany
(35.0170°S, 117.8920°E)
Time: 16:41:49
(UTC+08:00)

Explorer 11/Cluster Stage 4 - Pass Details

Date: 24 January 2021
Orbit: 467 x 1257 km, 28.8° (Epoch: 02 March)

Event Time Altitude Azimuth Distance (km) Brightness Sun altitude
Rises 06:56:23 0° 329° (NNW) 3,790 9.7 18.0°
Reaches altitude 10° 07:00:40 10° 351° (N) 2,660 9.2 18.9°
Maximum altitude 07:03:54 14° 22° (NNE) 2,211 9.1 19.5°
Drops below altitude 10° 07:06:52 10° 53° (NE) 2,369 9.8 20.1°
Sets 07:10:17 0° 78° (ENE) 3,123 10.9 20.8°
